Content
SEND FEEDBACK

Daily
Averages
Monthly
Summary
United States of America

MAURICEVILLE, TEXAS


Home > North America > United States > Texas
Elevation: 20 feet     Latitude: 30 14N     Longitude: 093 44W

WEATHER
 
SELECT A DAY
Number of Records: 115,567;   Date Range: 8/25/05 - 10/24/14
 
SHARE

PRINT THIS DATA

[ ← Previous Day ]
WEATHER ALMANAC - APRIL 30, 2013
[ Next Day → ]
[ °C ]   °F
Weather ElementAverageHighLow
Temperature73.4 °F80.6 °F (2:35 pm)68 °F (12:35 am)
Dewpoint66.5 °F68.2 °F (9:35 pm)63.5 °F (11:35 am)
Humidity80.2 %95 % (3:15 am)61 % (2:15 pm)
Barometer29.84 in29.89 in (12:35 am)29.79 in (3:55 pm)
Wind Speed1.9 mph11.5 mph (2:55 pm)
Wind Gust16.1 mph (3:35 pm)
Weather ElementAverage
Visibility9.9 mi
Wind DirectionNNE (35 °)

Weather ElementTotal
Precipitation---
Cooling Degree Days9.3 (Base 65)
Growing Degree Days24.3 (Base 50)
Averaged from 68 records on April 30, 2013
WEATHER CONDITIONS BREAKOUT
WIND DIRECTION BREAKOUT
WEATHER BY HOUR - APRIL 30, 2013
[ °C ]   °F
Local TimeTemperatureDewpointHumidityBarometerVisibilityWind DirectionWind SpeedGust SpeedPrecipitationEventsConditions
12:35 AM68.0 °F66.2 °F94 %29.89 in7.0 miCalmClear
12:55 AM70.2 °F67.6 °F92 %29.89 in10.0 miCalmClear
1:15 AM70.2 °F67.5 °F91 %29.88 in10.0 miCalmClear
1:35 AM70.2 °F67.5 °F91 %29.88 in10.0 miCalmClear
1:55 AM70.2 °F67.6 °F92 %29.87 in10.0 miCalmClear
2:15 AM70.0 °F67.5 °F92 %29.86 in10.0 miCalmClear
2:35 AM69.4 °F67.6 °F94 %29.86 in10.0 miCalmClear
2:55 AM69.4 °F67.6 °F94 %29.85 in7.0 miCalmClear
3:15 AM69.1 °F67.5 °F95 %29.84 in7.0 miCalmClear
3:35 AM70.2 °F68.0 °F93 %29.84 in10.0 miCalmClear
3:55 AM70.2 °F68.0 °F93 %29.85 in10.0 miCalmScattered Clouds
4:15 AM70.0 °F68.0 °F93 %29.85 in10.0 miCalmScattered Clouds
4:35 AM70.3 °F67.1 °F89 %29.84 in10.0 miCalmMostly Cloudy
4:55 AM70.2 °F66.9 °F89 %29.83 in10.0 miCalmScattered Clouds
5:15 AM70.2 °F66.7 °F89 %29.83 in10.0 miCalmMostly Cloudy
5:35 AM69.1 °F66.6 °F92 %29.84 in10.0 miCalmRainLight Rain
5:55 AM70.0 °F66.7 °F89 %29.85 in10.0 miCalmMostly Cloudy
6:15 AM70.0 °F66.7 °F89 %29.85 in10.0 miCalmScattered Clouds
6:35 AM69.8 °F66.7 °F90 %29.85 in10.0 miCalmScattered Clouds
6:55 AM70.0 °F67.1 °F91 %29.85 in10.0 miCalmClear
7:15 AM70.3 °F66.9 °F89 %29.84 in10.0 miCalmClear
7:35 AM70.2 °F66.7 °F89 %29.84 in10.0 miCalmClear
7:55 AM70.3 °F66.7 °F88 %29.85 in10.0 miCalmClear
8:15 AM70.7 °F66.9 °F88 %29.85 in10.0 miCalmClear
8:35 AM70.7 °F66.7 °F87 %29.84 in10.0 miCalmClear
8:55 AM70.9 °F67.1 °F88 %29.84 in10.0 miCalmScattered Clouds
9:15 AM71.6 °F67.1 °F86 %29.85 in10.0 miCalmMostly Cloudy
9:35 AM72.5 °F66.7 °F82 %29.85 in10.0 miCalmMostly Cloudy
9:55 AM72.7 °F66.2 °F80 %29.86 in10.0 miCalmScattered Clouds
10:15 AM73.2 °F66.2 °F79 %29.86 in10.0 miCalmClear
10:35 AM73.6 °F65.1 °F75 %29.87 in10.0 miCalmClear
10:55 AM74.1 °F64.6 °F72 %29.87 in10.0 miCalmClear
11:15 AM75.2 °F64.9 °F70 %29.87 in10.0 miEast (100°)4.6 mphClear
11:35 AM75.4 °F63.5 °F66 %29.86 in10.0 miCalmClear
11:55 AM77.4 °F64.8 °F65 %29.86 in10.0 miCalmClear
12:15 PM77.9 °F64.8 °F64 %29.85 in10.0 miESE (110°)3.5 mphClear
12:35 PM79.3 °F65.8 °F63 %29.85 in10.0 miEast (100°)6.9 mphClear
12:55 PM78.8 °F66.4 °F66 %29.83 in10.0 miCalmScattered Clouds
1:15 PM80.1 °F66.2 °F62 %29.83 in10.0 miEast (100°)8.1 mphMostly Cloudy
1:35 PM79.2 °F65.1 °F62 %29.83 in10.0 miESE (110°)6.9 mphMostly Cloudy
1:55 PM78.6 °F65.8 °F65 %29.83 in10.0 miESE (120°)6.9 mphMostly Cloudy
2:15 PM80.2 °F65.5 °F61 %29.82 in10.0 miSSE (150°)9.2 mphMostly Cloudy
2:35 PM80.6 °F66.7 °F63 %29.82 in10.0 miSE (140°)10.4 mphMostly Cloudy
2:55 PM80.4 °F66.0 °F61 %29.81 in10.0 miSSE (150°)11.5 mphScattered Clouds
3:15 PM79.7 °F65.1 °F61 %29.81 in10.0 miSE (140°)8.1 mphClear
3:35 PM79.7 °F65.5 °F62 %29.80 in10.0 miSSE (150°)5.8 mph16.1 mphClear
3:55 PM80.6 °F66.0 °F61 %29.79 in10.0 miSSE (160°)8.1 mphScattered Clouds
4:15 PM79.2 °F66.2 °F64 %29.79 in10.0 miSouth (180°)5.8 mphScattered Clouds
4:35 PM79.2 °F66.2 °F64 %29.79 in10.0 miSouth (170°)9.2 mphClear
4:55 PM78.3 °F66.0 °F66 %29.79 in10.0 miCalmScattered Clouds
5:15 PM76.1 °F65.7 °F70 %29.80 in10.0 miSSE (160°)4.6 mphScattered Clouds
5:35 PM77.7 °F66.6 °F68 %29.80 in10.0 miSouth (180°)11.5 mphScattered Clouds
5:55 PM76.3 °F66.2 °F71 %29.80 in10.0 miSSE (160°)9.2 mphClear
6:15 PM76.8 °F64.0 °F65 %29.80 in10.0 miCalmClear
6:35 PM75.9 °F65.5 °F70 %29.80 in10.0 miCalmClear
7:15 PM74.8 °F65.8 °F73 %29.80 in10.0 miCalmScattered Clouds
7:35 PM74.7 °F66.2 °F75 %29.81 in10.0 miCalmMostly Cloudy
8:15 PM72.9 °F67.5 °F83 %29.81 in10.0 miCalmScattered Clouds
8:35 PM72.3 °F67.8 °F86 %29.82 in10.0 miCalmClear
8:55 PM69.6 °F66.9 °F91 %29.82 in10.0 miCalmClear
9:15 PM68.9 °F66.7 °F93 %29.83 in10.0 miCalmThunderstormMostly Cloudy
9:35 PM71.8 °F68.2 °F88 %29.84 in10.0 miCalmMostly Cloudy
10:15 PM71.1 °F66.7 °F86 %29.85 in10.0 miCalmMostly Cloudy
10:35 PM70.7 °F66.7 °F87 %29.86 in10.0 miCalmMostly Cloudy
10:55 PM70.7 °F67.5 °F89 %29.86 in10.0 miCalmOvercast
11:15 PM70.7 °F68.0 °F91 %29.86 in10.0 miCalmOvercast
11:35 PM70.7 °F68.2 °F92 %29.85 in10.0 miCalmOvercast
11:55 PM69.8 °F67.3 °F92 %29.85 in10.0 miCalmOvercast
Hourly data recorded from KORG, located miles away from Mauriceville, Texas







STORIES FROM OUR PARTNERS